Regional Weather Roundup
Issued by NWS

Home | Current Version | Previous Version | Graphics & Text | Print | Product List | Glossary Off
Versions: 1 2 3 4 5 6 7 8 9 10 11 12 13 14 15 16 17 18 19 20 21 22 23 24 25 26 27 28 29 30 31 32 33 34 35 36 37 38 39 40 41 42 43 44 45 46 47 48 49 50

457
ASUS43 KMKX 221420
RWRWI

WISCONSIN REGIONAL WEATHER ROUNDUP
NATIONAL WEATHER SERVICE MILWAUKEE/SULLIVAN WI
900 AM CDT TUE MAY 22 2018

NOTE: "FAIR" INDICATES FEW OR NO CLOUDS BELOW 12,000 FEET WITH NO
SIGNIFICANT WEATHER AND/OR OBSTRUCTIONS TO VISIBILITY.

WIZ001-002-006>008-014>016-023>028-221500-
NORTHWEST WISCONSIN

CITY           SKY/WX    TMP DP  RH WIND       PRES   REMARKS
SUPERIOR ARPT  PTSUNNY   63  53  69 W5        30.04S
ASHLAND        PTSUNNY   64  55  72 SW6       30.04S
HAYWARD        CLOUDY    61  54  77 CALM      30.05S
SIREN          FAIR      63  54  72 CALM      30.05S
CUMBERLAND     CLOUDY    55  52  88 CALM      30.06S
RICE LAKE      CLOUDY    58  54  85 CALM      30.07S
CHETEK         CLOUDY    58  54  88 CALM      30.07R
LADYSMITH      CLOUDY    57  54  88 N3        30.08R
EAU CLAIRE     CLOUDY    57  55  93 CALM      30.05R
MENOMONIE      CLOUDY    59  55  86 E3        30.06R
NEW RICHMOND   CLOUDY    59  53  81 CALM      30.06R
OSCEOLA        CLOUDY    61  55  79 CALM      30.09R
$$

WIZ003>005-009-010-017-018-221500-
NORTH CENTRAL WISCONSIN

CITY           SKY/WX    TMP DP  RH WIND       PRES   REMARKS
MANITOWISH WTR CLOUDY    62  56  80 E3        30.04F
ARBOR VITAE    FAIR      62  56  80 N5        30.05S
WOODRUFF       FAIR      62  56  80 N5        30.05S
RHINELANDER    PTSUNNY   62  55  77 VRB5      30.05S
EAGLE RIVER    FAIR      61  50  68 W5        30.04F
LAND O LAKES   FAIR      63  50  64 N3        30.06F
PHILLIPS       CLOUDY    58  55  91 N3        30.05S
TOMAHAWK       PTSUNNY   58  53  81 CALM      30.05F
MEDFORD        CLOUDY    55  53  94 NW6       30.06R
MERRILL        PTSUNNY   61  55  82 CALM      30.05S
$$

WIZ029-030-035-036-043>047-221500-
CENTRAL WISCONSIN

CITY           SKY/WX    TMP DP  RH WIND       PRES   REMARKS
WAUSAU         FAIR      58  52  80 NE3       30.03F
MOSINEE        PTSUNNY   54  54 100 CALM      30.06S FOG
MARSHFIELD     PTSUNNY   57  54  89 E5        30.04R
STEVENS POINT  CLOUDY    54  53  96 NW5       30.06R
WAUPACA        CLOUDY    59  53  80 CALM      30.06R
WAUTOMA        CLOUDY    54  51  90 CALM      30.06S
WISC RAPIDS    CLOUDY    57  53  86 N3        30.06R
CAMP DOUGLAS   CLOUDY    55  55 100 CALM      30.06R
$$

WIZ011>013-019>022-031-037>040-048>050-221500-
NORTHEAST WISCONSIN

CITY           SKY/WX    TMP DP  RH WIND       PRES   REMARKS
ANTIGO         CLOUDY    55  55  99 N3        30.06S
SHAWANO        FAIR      60  54  80 CALM      30.05S
OCONTO         CLOUDY    53  49  84 CALM      30.05S
STURGEON BAY   CLOUDY    51  50  96 NW3       30.06S
GREEN BAY      CLOUDY    54  51  90 N3        30.06R
MANITOWOC      CLOUDY    51  49  92 N6        30.06R
APPLETON       CLOUDY    54  52  94 N6        30.04R
CLINTONVILLE   PTSUNNY   57  51  81 SE3       30.05S
OSHKOSH        CLOUDY    54  51  90 N6        30.05R
$$

WIZ032>034-041-042-053>061-221500-
SOUTHWEST WISCONSIN

CITY           SKY/WX    TMP DP  RH WIND       PRES   REMARKS
LA CROSSE      CLOUDY    59  55  87 CALM      30.06R
SPARTA         CLOUDY    53  52  97 CALM      30.07R
VIROQUA        CLOUDY    57  57 100 W3        30.07R
BOSCOBEL       CLOUDY    59  56  89 N3        30.06S
PRAIRIE DU CHI CLOUDY    62  58  86 NW5       30.06R
PLATTEVILLE    CLOUDY    59  59 100 CALM      30.06R
$$

WIZ056-057-062-063-064-067-068-221500-
SOUTH CENTRAL WISCONSIN

CITY           SKY/WX    TMP DP  RH WIND       PRES   REMARKS
REEDSBURG      CLOUDY    55  55 100 CALM      30.06S
BARABOO/DELLS  CLOUDY    53  52  96 CALM      30.06S FOG
LONE ROCK      CLOUDY    58  56  93 CALM      30.06S
MINERAL POINT  CLOUDY    57  57 100 N3        30.06R FOG
MADISON        CLOUDY    55  52  89 NW7       30.05R
MIDDLETON      CLOUDY    57  54  92 N3        30.06R
WATERTOWN      CLOUDY    53  53 100 NW3       30.05S
MONROE         CLOUDY    55  54  94 CALM      30.05R FOG
JANESVILLE     CLOUDY    57  57 100 NW3       30.05R FOG
$$

WIZ051-052-058>065-066-070>072-221500-
SOUTHEAST WISCONSIN

CITY           SKY/WX    TMP DP  RH WIND       PRES   REMARKS
MILWAUKEE      FOG       52  50  93 N3        30.05R VSB 1
WAUKESHA       CLOUDY    50  50 100 CALM      30.05R FOG
MILWAUKEE/TIMM CLOUDY    52  48  87 CALM      30.06R FOG
RACINE         CLOUDY    51  51 100 N8        30.05S FOG
BURLINGTON     CLOUDY    54  52  94 N3        30.04R
KENOSHA        CLOUDY    54  51  90 N6        30.04R
FOND DU LAC    CLOUDY    54  51  90 NW5       30.06R
SHEBOYGAN      CLOUDY    51  51 100 N6        30.05R FOG
WEST BEND      CLOUDY    52  52 100 CALM      30.05R
JUNEAU         CLOUDY    52  51  96 N3        30.07R FOG
$$

LSZ147-162-221500-
LAKE SUPERIOR

STATION/POSITION TIME  TEMP    WIND        PRES    WAVE
                       AIR SEA DIR/SP/G            HT/PER
                 (UTC) (F)     (DEG/KT/KT) (MB)    (FT/S)
W MID LAKE BUOY  1350   40 36  240/  6/  8 1017.1F   0
DEVILS ISLAND    1400   49     240/  7/  9 1017.4F
SAXON HARBOR     1340   62     290/  3/  7 1016.6S
$$

LMZ867-665-643>646-221500-
LAKE MICHIGAN

STATION/POSITION TIME  TEMP    WIND        PRES    WAVE
                       AIR SEA DIR/SP/G            HT/PER
                 (UTC) (F)     (DEG/KT/KT) (MB)    (FT/S)
N MID LAKE BUOY  1400   43      CALM  /  2 1017.2
NORTHPORT PIER   1340   50     310/  4/  5 1017.6R
KEWAUNEE LAKESHO 1354   50      50/  2/  4 1017.0R
SHEBOYGAN LAKESH 1400   47      10/  9/ 10 1017.8R
PORT WASHINGTON  1340   50      60/  3/  5 1018.3R
ATWATER BUOY     1337   47     360/  6/  8 1017.7R
MILWAUKEE LAKESH 1400   49      20/  3/  3   N/A
KENOSHA   LAKESH 1400   49                 1017.3
$$

TC  - TEMPERATURE IN CELSIUS
VSB - VISIBILITY IN STATUTE MILES
WCI - WIND CHILL INDEX
HX  - HEAT INDEX





USA.gov is the U.S. government's official web portal to all federal, state and local government web resources and services.